Погода в Прикумском

Россия / Ставропольский край     44°14′11″N   42°53′59″E
темп.,
°C
ветер,
м/с
пор.,
м/с
влажн.,
%
обл.,
%
осадки,
мм/ч
давл.,
гПа
погр.,
м
2 августа, пн
пн200:00+22сз115619 0.0 101111
03:00+20зюз22630 0.1 101112
06:00+21зюз216618 0.0 101227
09:00+28ссз114614 0.0 1012602
12:00+32ссв32345 0.0 10101924
15:00+33ссв32287 0.0 10092544
18:00+32св233530 0.0 1009110
21:00+25ю22580 0.1 101028
3 августа, вт
вт300:00+23з33620 0.0 101028
03:00+20зюз11710 0.8 101112
06:00+21зюз22740 0.4 101237
09:00+28зсз23470 0.4 1012485
12:00+33ссз22330 0.0 10112090
15:00+35ссз32265 0.0 10103042
18:00+33сз243220 0.0 1009269
21:00+26з22490 0.0 101116
4 августа, ср
ср400:00+23з22560 0.0 101224
03:00+22зюз34550 0.0 101263
06:00+23з36560 0.0 1013147
09:00+30зсз56370 0.0 1013666
12:00+34сз43290 0.0 10122156
15:00+35сз43260 0.0 10113053
18:00+34сз223287 0.0 1011454
21:00+26сз0154100 0.5 101311
5 августа, чт
чт500:00+22з22704 0.0 101425
03:00+20з33743 0.3 101433
06:00+21з2277100 1.1 101544
09:00+27с22490 1.1 1015631
12:00+32всв34320 0.0 10131716
15:00+35всв442720 0.0 10112763
18:00+33всв563029 0.0 1010839
21:00+26в234353 0.0 101244
6 августа, пт
пт600:00+24всв11480 0.0 101112
03:00+21св01540 0.0 101111
06:00+21всв11550 0.0 101117
09:00+29вюв69353 0.0 1011917
12:00+34в7925100 0.0 10091923
15:00+36в892213 0.0 10072482
18:00+33в61026100 0.0 1006601
21:00+26ю3446100 0.3 100960